Location: Radomski Observatory
(40.2854°N, 79.5145°W)
Time: 12:16:03
(UTC-04:00)

Cosmos 1072 Rocket - Visible Passes

Search period start: 01 October 2014 00:00
Search period end: 11 October 2014 00:00
Orbit: 950 x 1008 km, 82.9° (Epoch: 29 September)

Date Brightness Start Highest point End Pass type
(mag) Time Alt. Az. Time Alt. Az. Time Alt. Az.
01 Oct 8.0 06:04:26 10° E 06:06:21 11° ENE 06:08:16 10° ENE visible
01 Oct 7.5 20:28:45 10° NW 20:32:39 17° W 20:36:32 10° WSW visible
02 Oct 7.3 06:27:32 10° SE 06:32:16 23° E 06:37:02 10° NE visible
03 Oct 6.4 19:34:55 10° NNW 19:40:37 35° W 19:46:14 10° SSW visible
04 Oct 8.1 05:40:02 10° E 05:40:22 10° ENE 05:40:42 10° ENE visible
04 Oct 7.5 20:02:24 10° NW 20:06:39 19° W 20:10:52 10° SW visible
05 Oct 7.3 06:01:47 10° SE 06:06:15 21° E 06:10:45 10° NE visible
06 Oct 6.2 06:26:34 10° SSE 06:32:19 38° E 06:38:08 10° NNE visible
06 Oct 6.3 19:08:45 10° NNW 19:14:34 39° W 19:20:19 10° SSW visible
07 Oct 5.0 06:52:18 10° S 06:58:34 71° E 07:04:57 10° NNE visible
07 Oct 7.4 19:36:06 10° NW 19:40:38 21° W 19:45:09 10° SW visible
08 Oct 7.3 05:36:04 10° ESE 05:40:14 19° E 05:44:26 10° NE visible
08 Oct 8.1 20:05:40 10° WNW 20:06:31 10° WNW 20:07:23 10° W visible
09 Oct 6.3 06:00:40 10° SSE 06:06:17 35° E 06:11:57 10° NNE visible
10 Oct 5.1 06:26:15 10° S 06:32:30 64° E 06:38:50 10° NNE visible
10 Oct 7.3 19:09:49 10° NW 19:14:37 23° W 19:19:22 10° SW visible
